Sigfox identifier Datetime Temperature Humidity SNR
003A7977 2019-02-20 14:01:30 21 24 23.6
003A7977 2019-02-20 13:30:23 21 24 23.6
003A7977 2019-02-20 12:59:15 21 25 22.8
003A7977 2019-02-20 12:28:08 21 26 22.8
003A7977 2019-02-20 11:25:54 20.9 26 21.9
003A7977 2019-02-20 10:54:46 20.9 27 20.7
003A7977 2019-02-20 10:23:42 20.8 27 20.7
003A7977 2019-02-20 09:52:33 20.8 27 20.8
003A7977 2019-02-20 09:21:25 20.8 27 20.9
003A7977 2019-02-20 08:50:19 20.8 27 19.3
003A7977 2019-02-20 08:19:12 20.8 27 19.2
003A7977 2019-02-20 07:47:23 20.8 27 19
003A7977 2019-02-20 07:16:15 20.8 27 19.3
003A7977 2019-02-20 06:45:08 20.8 27 19.3
003A7977 2019-02-20 06:14:01 20.8 27 19.2
003A7977 2019-02-20 05:42:54 20.8 27 19.2
003A7977 2019-02-20 05:11:48 20.8 27 19.3
003A7977 2019-02-20 04:40:41 20.9 27 19.2
003A7977 2019-02-20 04:09:34 20.8 27 19.1
003A7977 2019-02-20 03:38:25 20.9 27 19.2
003A7977 2019-02-20 03:07:18 20.9 27 18.9
003A7977 2019-02-20 02:36:11 20.9 27 18.4
003A7977 2019-02-20 02:05:03 20.9 27 18.6
003A7977 2019-02-20 01:33:55 20.9 27 18.4
003A7977 2019-02-20 01:02:49 20.9 27 18.4
003A7977 2019-02-20 00:31:42 20.9 27 18.3
003A7977 2019-02-20 00:00:36 20.9 27 18.5
003A7977 2019-02-19 23:29:29 20.9 27 18.9
003A7977 2019-02-19 22:58:23 20.9 27 18.7
003A7977 2019-02-19 22:27:17 20.9 27 20.5
003A7977 2019-02-19 21:56:10 21 27 20.6
003A7977 2019-02-19 21:25:03 20.9 27 20.5
003A7977 2019-02-19 20:53:57 21 27 20.7
003A7977 2019-02-19 20:22:50 21 27 20.5
003A7977 2019-02-19 19:51:42 21 27 20.6
003A7977 2019-02-19 19:20:34 21 27 21.8
003A7977 2019-02-19 18:49:26 21 27 22
003A7977 2019-02-19 18:18:18 21.1 27 22
003A7977 2019-02-19 17:47:11 21.1 27 22.1
003A7977 2019-02-19 17:16:03 21.2 27 22.1
003A7977 2019-02-19 16:44:56 21.2 27 22.1
003A7977 2019-02-19 16:13:49 21.2 27 22.1
003A7977 2019-02-19 15:42:40 21.1 27 22.2
003A7977 2019-02-19 15:11:31 21.1 27 22.2
003A7977 2019-02-19 14:40:23 21.1 27 22.3
003A7977 2019-02-19 14:09:15 21.2 27 22.5
003A7977 2019-02-19 13:38:08 21.1 27 22.6
003A7977 2019-02-19 13:07:00 21 26 22.6
003A7977 2019-02-19 12:35:52 21.1 26 22.7
003A7977 2019-02-19 12:04:44 21.1 26 22.7
003A7977 2019-02-19 11:33:41 21.1 26 22.9
003A7977 2019-02-19 11:02:29 21.1 26 23
003A7977 2019-02-19 10:31:22 21 26 22.9
003A7977 2019-02-19 10:00:14 20.9 25 22.9
003A7977 2019-02-19 09:29:07 20.9 25 22
003A7977 2019-02-19 08:57:59 20.9 25 22
003A7977 2019-02-19 08:26:52 20.8 25 22.1
003A7977 2019-02-19 07:55:45 20.9 25 22
003A7977 2019-02-19 07:24:38 20.8 25 22.9
003A7977 2019-02-19 06:53:32 20.9 24 22.8
003A7977 2019-02-19 06:22:25 20.8 24 21.8
003A7977 2019-02-19 05:50:37 20.8 24 21.6
003A7977 2019-02-19 05:19:30 20.8 24 21.5
003A7977 2019-02-19 04:48:23 20.8 24 21.3
003A7977 2019-02-19 04:17:15 20.8 24 22.3
003A7977 2019-02-19 03:46:07 20.9 24 22.3
003A7977 2019-02-19 03:15:00 20.8 24 22.1
003A7977 2019-02-19 02:43:53 20.8 24 22
003A7977 2019-02-19 02:12:46 20.8 24 22
003A7977 2019-02-19 01:41:38 20.9 23 21.8
003A7977 2019-02-19 01:10:30 20.9 23 21.8
003A7977 2019-02-19 00:39:23 20.8 23 21.8
003A7977 2019-02-19 00:08:15 20.8 23 21.9
003A7977 2019-02-18 23:37:07 20.9 23 21.9
003A7977 2019-02-18 23:05:58 20.9 23 21.9
003A7977 2019-02-18 22:34:49 20.9 23 21.7
003A7977 2019-02-18 22:03:41 20.9 23 21.7
003A7977 2019-02-18 21:32:35 20.9 22 21.8
003A7977 2019-02-18 21:01:27 20.9 22 21.9
003A7977 2019-02-18 20:30:20 20.9 22 21.9
003A7977 2019-02-18 19:59:11 20.9 22 22
003A7977 2019-02-18 19:28:04 20.9 22 21.9
003A7977 2019-02-18 18:56:56 20.9 22 22
003A7977 2019-02-18 18:25:49 20.9 22 20.9
003A7977 2019-02-18 17:54:41 21 22 21.1
003A7977 2019-02-18 17:23:33 21 22 21.3
003A7977 2019-02-18 16:52:27 21 21 22.4
003A7977 2019-02-18 16:21:20 21 21 22.5
003A7977 2019-02-18 15:50:12 21.1 21 22.6
003A7977 2019-02-18 15:19:06 21.1 21 21.8
003A7977 2019-02-18 14:47:59 21.1 21 21.9
003A7977 2019-02-18 14:16:52 21.2 20 22
003A7977 2019-02-18 13:45:46 21.2 20 22.2
003A7977 2019-02-18 13:14:34 21.3 20 23.1
003A7977 2019-02-18 12:43:28 21.4 19 23.2
003A7977 2019-02-18 12:12:20 21.6 20 23.2
003A7977 2019-02-18 11:41:12 21.5 19 23.3
003A7977 2019-02-18 11:10:04 21.4 19 23.3
003A7977 2019-02-18 10:38:57 21.4 19 23.2
003A7977 2019-02-18 10:07:50 21.3 19 23.3
003A7977 2019-02-18 09:36:43 21.2 19 23.4
003A7977 2019-02-18 09:05:34 21.2 19 24
003A7977 2019-02-18 08:34:27 21.1 19 24
003A7977 2019-02-18 08:03:19 21.1 19 24
003A7977 2019-02-18 07:32:12 21 19 24
003A7977 2019-02-18 07:01:05 21 19 24.1
003A7977 2019-02-18 06:29:58 21 19 24.1
003A7977 2019-02-18 05:58:51 21 19 24.2
003A7977 2019-02-18 05:27:45 21 19 24.2
003A7977 2019-02-18 04:56:37 21 19 24.7
003A7977 2019-02-18 04:25:29 21 19 24.6
003A7977 2019-02-18 03:53:40 21 19 24.1
003A7977 2019-02-18 03:22:32 21 19 24
003A7977 2019-02-18 02:51:24 21 19 24.1
003A7977 2019-02-18 02:20:15 21 19 24.1
003A7977 2019-02-18 01:49:05 21 19 24.1
003A7977 2019-02-18 01:17:56 21.1 19 24.1
003A7977 2019-02-18 00:46:48 21 19 24
003A7977 2019-02-18 00:15:41 21.1 19 23.5
003A7977 2019-02-17 23:44:34 21.1 19 23.5
003A7977 2019-02-17 23:13:30 21 20 23.5
003A7977 2019-02-17 22:42:18 21 20 23.5
003A7977 2019-02-17 22:11:11 21.1 20 23.6
003A7977 2019-02-17 21:40:02 21.1 20 23.6
003A7977 2019-02-17 21:08:55 21.1 20 24.2
003A7977 2019-02-17 20:37:47 21.1 20 24.2
003A7977 2019-02-17 20:06:39 21.1 20 23.6
003A7977 2019-02-17 19:35:29 21.1 20 23.6
003A7977 2019-02-17 19:04:20 21.1 20 23.6
003A7977 2019-02-17 18:33:10 21.1 20 23.6
003A7977 2019-02-17 18:02:01 21.2 20 23.5
003A7977 2019-02-17 17:30:52 21.2 20 23.5
003A7977 2019-02-17 16:59:44 21.2 20 23.5
003A7977 2019-02-17 16:28:35 21.2 20 23.5
003A7977 2019-02-17 15:57:27 21.2 20 22.8
003A7977 2019-02-17 15:26:20 21.2 21 22.9
003A7977 2019-02-17 14:55:11 21.2 21 22.9
003A7977 2019-02-17 14:24:03 21.2 21 23
003A7977 2019-02-17 13:52:56 21.2 21 23
003A7977 2019-02-17 13:21:46 21.2 21 22.9
003A7977 2019-02-17 12:50:37 21.2 21 23.1
003A7977 2019-02-17 12:19:29 21.2 21 23.1
003A7977 2019-02-17 11:48:21 21.1 21 23.1
003A7977 2019-02-17 11:17:15 21.1 21 23.1
003A7977 2019-02-17 10:46:09 21.1 21 23.1
003A7977 2019-02-17 10:15:03 21.1 21 23.1
003A7977 2019-02-17 09:43:56 21.1 22 23
003A7977 2019-02-17 09:12:51 21.1 22 23
003A7977 2019-02-17 08:41:46 21.1 22 23
003A7977 2019-02-17 08:10:40 21.1 22 22.2
003A7977 2019-02-17 07:39:34 21.1 22 22.2
003A7977 2019-02-17 07:08:29 21.1 22 22.2
003A7977 2019-02-17 06:37:22 21.1 22 22.3
003A7977 2019-02-17 06:06:16 21.2 22 22.3
003A7977 2019-02-17 05:35:10 21.2 23 22.4
003A7977 2019-02-17 05:04:02 21.2 23 22.6
003A7977 2019-02-17 04:32:55 21.2 23 22.5
003A7977 2019-02-17 04:01:48 21.2 23 22.4
003A7977 2019-02-17 03:30:40 21.1 23 22.6
003A7977 2019-02-17 02:59:33 21.2 24 22.5
003A7977 2019-02-17 02:28:26 21.2 24 22.5
003A7977 2019-02-17 01:56:39 21.2 24 22.5
003A7977 2019-02-17 01:25:34 21.2 24 22.5
003A7977 2019-02-17 00:54:27 21.2 24 22.4
003A7977 2019-02-17 00:23:21 21.2 24 22.5
003A7977 2019-02-16 23:52:15 21.2 24 22.3
003A7977 2019-02-16 23:21:08 21.2 25 22.2
003A7977 2019-02-16 22:50:01 21.2 25 22.3
003A7977 2019-02-16 22:18:54 21.3 25 22.3
003A7977 2019-02-16 21:47:46 21.3 25 22.3
003A7977 2019-02-16 21:16:37 21.3 25 22.3
003A7977 2019-02-16 20:45:29 21.3 25 22.4
003A7977 2019-02-16 20:14:23 21.3 25 22.3
003A7977 2019-02-16 19:43:16 21.3 25 22.3
003A7977 2019-02-16 19:12:09 21.3 25 22.2
003A7977 2019-02-16 18:41:02 21.3 25 22.2
003A7977 2019-02-16 18:09:56 21.3 25 22.3
003A7977 2019-02-16 17:38:49 21.4 25 22.1
003A7977 2019-02-16 17:07:42 21.4 25 22
003A7977 2019-02-16 16:36:35 21.4 25 22
003A7977 2019-02-16 16:05:28 21.4 25 21.9
003A7977 2019-02-16 15:34:22 21.4 25 22
003A7977 2019-02-16 15:03:12 21.5 25 22
003A7977 2019-02-16 14:32:04 21.4 25 21.8
003A7977 2019-02-16 14:00:57 21.4 25 22
003A7977 2019-02-16 13:29:49 21.4 25 22
003A7977 2019-02-16 12:58:42 21.4 25 22.1
003A7977 2019-02-16 12:27:35 21.4 25 22.1
003A7977 2019-02-16 11:56:27 21.3 25 22.9
003A7977 2019-02-16 11:25:20 21.3 25 22.9
003A7977 2019-02-16 10:54:15 21.3 25 22.9
003A7977 2019-02-16 10:23:06 21.2 25 23
003A7977 2019-02-16 09:52:00 21.2 25 23.1
003A7977 2019-02-16 09:20:52 21.2 25 23.1
003A7977 2019-02-16 08:49:46 21.2 25 23.2
003A7977 2019-02-16 08:18:40 21.3 25 23.2
003A7977 2019-02-16 07:47:34 21.3 25 23.2
003A7977 2019-02-16 07:16:28 21.3 25 23.2
003A7977 2019-02-16 06:45:20 21.3 25 23.3
003A7977 2019-02-16 06:14:14 21.3 25 23.3
003A7977 2019-02-16 05:43:08 21.3 25 23.4
003A7977 2019-02-16 05:12:00 21.3 25 23.4
003A7977 2019-02-16 04:40:53 21.3 25 23.3
003A7977 2019-02-16 04:09:46 21.3 25 23.4
003A7977 2019-02-16 03:38:37 21.3 25 23.3
003A7977 2019-02-16 03:07:28 21.3 25 23.3
003A7977 2019-02-16 02:36:21 21.3 25 23.2
003A7977 2019-02-16 02:05:13 21.3 25 23.2
003A7977 2019-02-16 01:34:05 21.3 25 23.3
003A7977 2019-02-16 01:02:56 21.4 25 23.1
003A7977 2019-02-16 00:31:48 21.3 25 23
003A7977 2019-02-16 00:00:00 21.4 25 23
003A7977 2019-02-15 23:28:52 21.4 25 22.8
003A7977 2019-02-15 22:57:44 21.4 25 21.9
003A7977 2019-02-15 22:26:36 21.5 25 21.8
003A7977 2019-02-15 21:55:28 21.5 25 21.8
003A7977 2019-02-15 21:24:19 21.5 25 21.7
003A7977 2019-02-15 20:53:12 21.6 25 21.3
003A7977 2019-02-15 20:22:04 21.6 25 21.3
003A7977 2019-02-15 19:50:56 21.6 25 21.3
003A7977 2019-02-15 19:19:47 21.7 25 21.3
003A7977 2019-02-15 18:48:39 21.8 25 21.3
003A7977 2019-02-15 18:17:32 21.8 25 21.3
003A7977 2019-02-15 17:46:24 21.8 25 21.2
003A7977 2019-02-15 17:15:15 21.8 24 21.1
003A7977 2019-02-15 16:44:08 21.8 24 20.9
003A7977 2019-02-15 16:13:00 21.8 24 20.9
003A7977 2019-02-15 15:41:52 21.8 24 21.1
003A7977 2019-02-15 15:10:45 21.8 24 21
003A7977 2019-02-15 14:39:38 21.7 24 21.1
003A7977 2019-02-15 14:08:30 21.7 24 21.2
003A7977 2019-02-15 13:37:23 21.7 24 21.2
003A7977 2019-02-15 13:06:17 21.7 24 21.2
003A7977 2019-02-15 12:35:10 21.6 24 21
003A7977 2019-02-15 12:04:04 21.6 24 22.1
003A7977 2019-02-15 11:32:55 21.6 25 22.1
003A7977 2019-02-15 11:01:48 21.6 25 22.3
003A7977 2019-02-15 10:30:42 21.5 25 22.3
003A7977 2019-02-15 09:59:35 21.5 25 22.4
003A7977 2019-02-15 09:28:28 21.5 25 22.4
003A7977 2019-02-15 08:57:21 21.4 25 22.4
003A7977 2019-02-15 08:26:15 21.4 25 22.4
003A7977 2019-02-15 07:55:09 21.4 25 22.4
003A7977 2019-02-15 07:24:01 21.4 25 22.5
003A7977 2019-02-15 06:52:53 21.4 25 22.4
003A7977 2019-02-15 06:21:47 21.4 25 22.4
003A7977 2019-02-15 05:50:40 21.4 25 22.4
003A7977 2019-02-15 05:19:35 21.4 25 22.3
003A7977 2019-02-15 04:48:27 21.4 25 22.4
003A7977 2019-02-15 04:17:21 21.4 25 22.3
003A7977 2019-02-15 03:46:15 21.4 25 22.3
003A7977 2019-02-15 03:15:08 21.4 25 22.3
003A7977 2019-02-15 02:44:03 21.4 25 22.1
003A7977 2019-02-15 02:12:53 21.4 25 21.9
003A7977 2019-02-15 01:41:46 21.4 25 21.9
003A7977 2019-02-15 01:10:39 21.4 25 21.7
003A7977 2019-02-15 00:39:32 21.5 25 21.9
003A7977 2019-02-15 00:08:24 21.5 25 21.8
003A7977 2019-02-14 23:37:18 21.5 25 21.7
003A7977 2019-02-14 23:06:10 21.5 25 20.4
003A7977 2019-02-14 22:35:04 21.5 25 20.3
003A7977 2019-02-14 22:03:15 21.6 25 20.1
003A7977 2019-02-14 21:32:08 21.6 25 20.1
003A7977 2019-02-14 21:01:02 21.6 24 20.1
003A7977 2019-02-14 20:29:56 21.6 24 20
003A7977 2019-02-14 19:58:49 21.7 24 19.9
003A7977 2019-02-14 19:27:42 21.8 24 19.8
003A7977 2019-02-14 18:56:35 21.8 24 19.9
003A7977 2019-02-14 18:25:30 21.8 24 19.6
003A7977 2019-02-14 17:54:24 21.8 24 19.5
003A7977 2019-02-14 17:23:16 21.9 24 19.2
003A7977 2019-02-14 16:52:08 21.9 24 19.2
003A7977 2019-02-14 16:21:00 21.9 25 19
003A7977 2019-02-14 15:49:54 21.8 24 18.9
003A7977 2019-02-14 15:18:46 21.8 24 19
003A7977 2019-02-14 14:47:39 21.8 24 19
003A7977 2019-02-14 14:16:32 21.7 24 19
003A7977 2019-02-14 13:45:24 21.6 23 19.3
003A7977 2019-02-14 13:14:17 21.6 23 19.5
003A7977 2019-02-14 12:43:11 21.5 23 19.4
003A7977 2019-02-14 12:12:04 21.4 23 19.5
003A7977 2019-02-14 11:40:56 21.3 23 19.5
003A7977 2019-02-14 11:09:49 21.3 23 19.7
003A7977 2019-02-14 10:38:43 21.2 24 20
003A7977 2019-02-14 10:07:36 21.1 24 20.2
003A7977 2019-02-14 09:36:30 21.1 23 20.4
003A7977 2019-02-14 09:05:23 21 23 20.6
003A7977 2019-02-14 08:34:15 21 23 20.8
003A7977 2019-02-14 08:03:09 21 24 20.9
003A7977 2019-02-14 07:32:01 21 24 21
003A7977 2019-02-14 07:00:53 21 25 21.2
003A7977 2019-02-14 06:29:45 21 25 21.1
003A7977 2019-02-14 05:58:37 21.1 25 21.2
003A7977 2019-02-14 05:27:28 21.1 25 21.3
003A7977 2019-02-14 04:56:20 21.1 25 21.3
003A7977 2019-02-14 04:25:12 21.1 25 21.5
003A7977 2019-02-14 03:54:04 21.1 25 21.6
003A7977 2019-02-14 03:22:57 21.1 25 21.8
003A7977 2019-02-14 02:51:50 21.1 25 21.9
003A7977 2019-02-14 02:20:42 21.1 25 21.9
003A7977 2019-02-14 01:49:35 21.1 25 22
003A7977 2019-02-14 01:18:27 21.1 25 22.2
003A7977 2019-02-14 00:47:18 21.1 25 22.1
003A7977 2019-02-14 00:16:10 21.1 25 22
003A7977 2019-02-13 23:45:02 21.2 25 21.9
003A7977 2019-02-13 23:13:54 21.2 25 21.9
003A7977 2019-02-13 22:42:45 21.3 25 21.8
003A7977 2019-02-13 22:11:36 21.3 25 21.8
003A7977 2019-02-13 21:40:28 21.3 25 21.6
003A7977 2019-02-13 21:09:21 21.4 25 21.4
003A7977 2019-02-13 20:38:14 21.4 25 21.5
003A7977 2019-02-13 20:06:24 21.5 25 21.4
003A7977 2019-02-13 19:35:16 21.6 25 21.3
003A7977 2019-02-13 19:04:08 21.6 25 22.3
003A7977 2019-02-13 18:33:00 21.6 25 22.3
003A7977 2019-02-13 18:01:51 21.7 26 22.4
003A7977 2019-02-13 17:30:44 21.6 26 22.4
003A7977 2019-02-13 16:59:36 21.6 26 22.4
003A7977 2019-02-13 16:28:29 21.5 26 22.5
003A7977 2019-02-13 15:57:21 21.4 26 22.4
003A7977 2019-02-13 15:26:12 21.3 26 22.3
003A7977 2019-02-13 14:55:04 21.3 25 22.3
003A7977 2019-02-13 14:23:56 21.2 25 22.3
003A7977 2019-02-13 13:52:49 21.2 24 22.2
003A7977 2019-02-13 13:21:41 21.3 24 22.3
003A7977 2019-02-13 12:50:33 21.3 25 22.3
003A7977 2019-02-13 12:19:26 21.3 24 22.2
003A7977 2019-02-13 11:48:20 21.3 25 22.4
003A7977 2019-02-13 11:17:12 21.2 25 22.5
003A7977 2019-02-13 10:46:03 21 25 22.5
003A7977 2019-02-13 10:14:55 21 24 22.6
003A7977 2019-02-13 09:43:47 21 23 22.8
003A7977 2019-02-13 09:12:39 21 22 22.8
003A7977 2019-02-13 08:41:32 21 22 22.9
003A7977 2019-02-13 08:10:26 21 21 22.8
003A7977 2019-02-13 07:39:18 21 20 22.9
003A7977 2019-02-13 07:08:12 21 19 22.8
003A7977 2019-02-13 06:37:05 21 19 22.7
003A7977 2019-02-13 06:05:58 21 19 21.9
003A7977 2019-02-13 05:34:50 21 19 21.8
003A7977 2019-02-13 05:03:43 21.1 19 21.6
003A7977 2019-02-13 04:32:34 21.1 19 21.4
003A7977 2019-02-13 04:01:26 21.1 18 21.3
003A7977 2019-02-13 03:30:18 21.1 18 21.2
003A7977 2019-02-13 02:59:10 21.1 18 21.2
003A7977 2019-02-13 02:28:02 21.1 18 21.2
003A7977 2019-02-13 01:56:55 21.1 18 21.1
003A7977 2019-02-13 01:25:47 21.1 17 21.2
003A7977 2019-02-13 00:54:39 21.1 17 21.2
003A7977 2019-02-13 00:23:31 21.2 18 21.2
003A7977 2019-02-12 23:52:24 21.2 19 20.9
003A7977 2019-02-12 23:21:15 21.2 19 20.9
003A7977 2019-02-12 22:50:08 21.2 18 20.7
003A7977 2019-02-12 22:19:00 21.3 18 20.7
003A7977 2019-02-12 21:47:52 21.3 18 20.9
003A7977 2019-02-12 21:16:44 21.4 20 20.8
003A7977 2019-02-12 20:45:36 21.4 21 20.6
003A7977 2019-02-12 20:14:28 21.5 20 20.5
003A7977 2019-02-12 19:43:19 21.5 20 20.4
003A7977 2019-02-12 19:12:12 21.4 20 20.6
003A7977 2019-02-12 18:41:03 21.4 19 20.4
003A7977 2019-02-12 18:09:13 21.4 18 20.4
003A7977 2019-02-12 17:38:07 21.4 18 20.4
003A7977 2019-02-12 17:06:59 21.5 18 20.3
003A7977 2019-02-12 16:35:52 21.6 18 20.3
003A7977 2019-02-12 16:04:44 21.6 18 20.2
003A7977 2019-02-12 15:33:38 21.6 18 20.2
003A7977 2019-02-12 15:02:31 21.6 18 20.3
003A7977 2019-02-12 14:31:24 21.5 19 20.3
003A7977 2019-02-12 14:00:16 21.4 19 20.4
003A7977 2019-02-12 13:29:09 21.4 18 20.3
003A7977 2019-02-12 12:58:01 21.5 18 20.3
003A7977 2019-02-12 12:26:53 21.6 18 20
003A7977 2019-02-12 11:55:44 21.5 18 19.8
003A7977 2019-02-12 11:24:36 21.5 18 19.8
003A7977 2019-02-12 10:53:28 21.4 19 19.9
003A7977 2019-02-12 10:22:21 21.4 20 19.8
003A7977 2019-02-12 09:51:13 21.3 20 19.8
003A7977 2019-02-12 09:20:06 21.2 22 19.8
003A7977 2019-02-12 08:48:58 21.1 23 19.5
003A7977 2019-02-12 08:17:50 21.1 22 19.6
003A7977 2019-02-12 07:46:43 21 23 19.6
003A7977 2019-02-12 07:15:37 21 25 19.7
003A7977 2019-02-12 06:44:28 21 26 19.9
003A7977 2019-02-12 06:13:20 21 26 19.9
003A7977 2019-02-12 05:42:13 21.1 26 19.7
003A7977 2019-02-12 05:11:06 21.1 26 19.8
003A7977 2019-02-12 04:39:59 21.1 26 19.8
003A7977 2019-02-12 04:08:51 21.1 26 19.8
003A7977 2019-02-12 03:37:41 21.1 26 19.9
003A7977 2019-02-12 03:06:34 21.1 27 20
003A7977 2019-02-12 02:35:26 21.1 27 20.2
003A7977 2019-02-12 02:04:18 21.2 27 20.1
003A7977 2019-02-12 01:33:10 21.2 27 20.2
003A7977 2019-02-12 01:01:59 21.2 27 20.1
003A7977 2019-02-12 00:30:50 21.2 27 20.3
003A7977 2019-02-11 23:59:41 21.2 27 20.4
003A7977 2019-02-11 23:28:32 21.3 27 20.5
003A7977 2019-02-11 22:57:22 21.3 27 20.7
003A7977 2019-02-11 22:26:13 21.4 27 20.6
003A7977 2019-02-11 21:55:04 21.5 27 20.5
003A7977 2019-02-11 21:23:55 21.5 27 20.7
003A7977 2019-02-11 20:52:44 21.6 27 20.8
003A7977 2019-02-11 20:21:35 21.7 27 20.6
003A7977 2019-02-11 19:50:27 21.8 27 20.9
003A7977 2019-02-11 19:19:20 21.9 27 20.8
003A7977 2019-02-11 18:48:12 22 27 21.2
003A7977 2019-02-11 18:17:03 22.2 26 21.1
003A7977 2019-02-11 17:45:54 22.4 27 19.9
003A7977 2019-02-11 17:14:45 22.5 27 15.6
003A7977 2019-02-11 16:43:35 22.3 31 0